Regional Weather Roundup
Issued by NWS Goodland, KS

Home | Current Version | Previous Version | Text Only | Print | Product List | Glossary Off
Versions: 1 2 3 4 5 6 7 8 9 10 11 12 13 14 15 16 17 18 19 20 21 22 23 24 25 26 27 28 29 30 31 32 33 34 35 36 37 38 39 40 41 42 43 44 45 46 47 48 49 50

000
ASUS43 KGLD 200908
RWRGLD

GOODLAND FORECAST AREA HOURLY WEATHER ROUNDUP
NATIONAL WEATHER SERVICE GOODLAND KS
200 AM MST SAT DEC 20 2014

...OFFICIAL OBSERVATIONS...

CITY           SKY/WX    TMP DP  RH WIND       PRES   REMARKS
GOODLAND KS    PTCLDY    30  27  88 W9        30.03R
HILL CITY KS   PTCLDY    31  26  82 SW6       30.05S
IMPERIAL NEB   CLEAR     22  17  81 W6        30.02S
MCCOOK NEB     PTCLDY    25  22  88 W9        30.04R
AKRON CO       PTCLDY    28  22  78 SW12      29.99S WCI  18
BURLINGTON CO  PTCLDY    31  26  82 SW9       30.03R
LIMON CO       PTCLDY    16  14  92 N6        30.03R
$$

...UNOFFICIAL OBSERVATIONS...

CITY           SKY/WX    TMP DP  RH WIND       PRES   REMARKS
COLBY KS       CLEAR     28  28 100 SW6       30.04S
GOVE KS          N/A     28  32 100 MISG        N/A
NORTON KS      CLEAR     27  21  80 W6        30.04R
SHARON SPRINGS   N/A     27  25  92 W7          N/A
TRIBUNE KS     PTCLDY    28  28 100 W7        30.06S
KIT CARSON CO    N/A     23  20  89 MISG        N/A
$$


USA.gov is the U.S. government's official web portal to all federal, state and local government web resources and services.